[[{"header":{"parameterUnit":"m.s-1","parameterCategory":1,"la1":30.2991,"la2":30.254,"lo1":-89.0895,"lo2":-89.0444,"dy":0.0017,"dx":0.0017,"nx":28,"ny":28,"refTime":"2023-09-02T09:00:00:Z","depth":0,"parameterNumber":2,"parameterNumberName":"U-component_of_WINDS"},"data":[0,0,0,0,0,0,0,0,0,0,0,0,0,0,0,0,0,0,0,0,0,0,0,0,0,0,0,0,0,0,0,0,0,0,0,0,0,0,0,0,0,0,0,0,0,0,0,0,0,0,0,0,0,0,0,0,0,0,-3.9707,-3.9709,0,-3.988,-3.9882,-3.9884,-3.9935,-3.9934,-3.9933,-3.9932,-4.0107,-4.0112,-4.0117,0,0,0,0,0,0,0,0,0,0,0,0,0,-3.9416,-3.9421,-3.9707,-3.9709,-3.9711,-3.988,-3.9882,-3.9885,-3.9935,-3.9934,-3.9933,-3.9932,-4.0105,-4.0111,-4.0118,0,0,0,0,0,0,0,0,0,0,0,0,0,-3.9561,-3.9423,-3.9706,-3.9756,-3.9763,-3.9879,-3.9882,-3.9885,-3.9935,-3.9934,-3.9932,-3.9931,-4.0103,-4.0111,-4.0119,-4.0197,0,0,-4.0144,-4.0148,0,0,0,0,0,0,0,0,-3.9553,-3.9572,-3.9747,-3.9753,-3.976,-3.9884,-3.9844,-3.999,-3.9935,-3.9869,-3.9932,-3.993,-4.0034,-4.0047,-4.0083,-4.0205,-4.0213,-4.0145,-4.015,-4.0153,-4.0156,0,0,0,0,0,0,0,-3.9543,-3.9565,-3.9775,-3.9749,-3.9758,-3.9769,-3.9788,-3.9872,-3.9957,-3.9875,-3.9879,-3.9899,-4.0037,-4.0075,-4.0087,-4.0215,-4.0145,-4.0152,-4.0157,-4.016,-4.041,-4.0411,0,0,0,0,0,0,-3.9525,-3.9556,-3.977,-3.978,-3.9651,-3.9776,-3.9797,-3.9846,-3.9956,-3.9972,-3.99,-3.9901,-4.0061,-4.0078,-4.0094,-4.0191,-4.0153,-4.0161,-4.0166,-4.0408,-4.041,-4.0412,0,0,0,0,0,0,-3.9518,-3.9543,-3.9763,-3.9669,-3.9698,-3.9782,-3.9837,-3.985,-3.9888,-3.9975,-3.999,-3.9923,-4.0061,-4.0082,-4.0171,-4.0198,-4.0165,-4.0172,-4.0406,-4.0409,-4.0411,-4.0388,0,0,0,0,0,0,-3.951,-3.9541,-3.9572,-3.967,-3.9703,-3.9838,-3.9838,-3.9854,-3.9902,-3.9905,-4.0001,-4.0015,-4.0062,-4.0158,-4.0179,-4.0209,-4.0179,-4.0404,-4.0407,-4.041,-4.0386,-4.0389,-4.0391,0,0,0,0,0,-3.9499,-3.9558,-3.9573,-3.9599,-3.9744,-3.9839,-3.9858,-3.9911,-3.9904,-3.9936,-3.9992,-4.0012,-4.0192,-4.0167,-4.0191,-4.0223,-4.0402,-4.0406,-4.041,-4.0385,-4.0389,-4.0391,0,0,0,0,0,0,-3.946,-3.9572,-3.959,-3.9682,-3.9751,-3.9848,-3.9889,-3.9913,-3.9984,-3.9983,-4.0045,-4.0066,-4.015,-4.0196,-4.0166,-4.0305,-4.0298,-4.0307,-4.0271,-4.0275,-4.0277,-4.0263,-4.0186,0,0,0,0,0,-3.9462,-3.9531,-3.9625,-3.9697,-3.9731,-3.9804,-3.9847,-3.9882,-3.9955,-3.9984,-4.0047,-4.0116,-4.0189,-4.0235,-4.0306,-4.0394,-4.0415,-4.0428,-4.0431,-4.0433,-4.0438,-4.0487,-4.0494,-4.0424,-4.0424,-4.0424,0,0,-3.9467,-3.9537,-3.9576,-3.9691,-3.9749,-3.9817,-3.9828,-3.9901,-3.9952,-3.9995,-4.0083,-4.0131,-4.0213,-4.0301,-4.0343,-4.0342,-4.0463,-4.0437,-4.0438,-4.0443,-4.0492,-4.0498,-4.0504,-4.0427,-4.0426,-4.0426,0,0,-3.9511,-3.9572,-3.9638,-3.9696,-3.9782,-3.9831,-3.9846,-3.994,-3.9974,-4.0063,-4.0097,-4.0159,-4.0282,-4.0338,-4.0383,-4.0449,-4.047,-4.0471,-4.0483,-4.0529,-4.0535,-4.054,-4.0561,-4.0569,-4.0477,-4.0477,-4.0477,0,-3.9506,-3.9612,-3.9669,-3.974,-3.9789,-3.9833,-3.9899,-3.9952,-4.0057,-4.009,-4.0088,-4.0243,-4.0301,-4.0402,-4.0418,-4.0454,-4.0473,-4.0459,-4.053,-4.0535,-4.0541,-4.0562,-4.057,-4.0476,-4.0476,-4.0476,-4.0476,0,-3.96,-3.9673,-3.9716,-3.9817,-3.9872,-3.994,-4.0006,-4.0054,-4.0085,-4.0132,-4.0222,-4.0294,-4.038,-4.0407,-4.0437,-4.0513,-4.0509,-4.0518,-4.0512,-4.0546,-4.0567,-4.0575,-4.0475,-4.0475,-4.0476,-4.0476,0,0,-3.9622,-3.9755,-3.9769,-3.9815,-3.9915,-3.9972,-4.0042,-4.0127,-4.0166,-4.0238,-4.0297,-4.0401,-4.0409,-4.046,-4.0497,-4.0538,-4.0584,-4.0542,-4.0545,-4.0545,-4.0669,-4.0661,-4.0669,-4.0599,-4.0601,-4.0603,-4.0662,0,-3.9677,-3.9805,-3.9858,-3.996,-4.0027,-4.0071,-4.0132,-4.0199,-4.0246,-4.0309,-4.0361,-4.0433,-4.044,-4.047,-4.0513,-4.0569,-4.0609,-4.0566,-4.0653,-4.0656,-4.0629,-4.0681,-4.0672,-4.0724,-4.0671,-4.0672,-4.0673,0,-3.9757,-3.983,-3.9939,-4.003,-4.006,-4.0114,-4.0195,-4.0256,-4.0333,-4.0364,-4.0421,-4.0456,-4.053,-4.0522,-4.0624,-4.0593,-4.0633,-4.0665,-4.0669,-4.0677,-4.0665,-4.0688,-4.0742,-4.0749,-4.0687,-4.0686,-4.0685,0,-3.976,-3.9885,-3.9966,-4.0004,-4.0113,-4.0149,-4.0196,-4.0272,-4.0319,-4.0391,-4.0422,-4.0501,-4.0544,-4.0604,-4.0659,-4.0648,-4.0756,-4.0752,-4.0782,-4.0781,-4.0801,-4.0799,-4.086,-4.083,-4.083,-4.083,-4.083,0,-3.9814,-3.9878,-3.9968,-4.0018,-4.0091,-4.0152,-4.0223,-4.0272,-4.0339,-4.0399,-4.0441,-4.0496,-4.0567,-4.063,-4.0674,-4.0751,-4.0771,-4.0797,-4.0807,-4.0792,-4.0788,-4.0817,-4.0814,-4.0832,-4.0832,-4.0831,-4.0831,0,-3.9827,-3.9891,-3.9982,-4.0077,-4.0103,-4.0152,-4.0234,-4.0283,-4.0333,-4.0407,-4.0428,-4.0506,-4.0583,-4.0645,-4.0745,-4.0775,-4.0855,-4.0868,-4.0829,-4.0834,-4.086,-4.0856,-4.094,-4.0954,-4.0916,-4.0916,-4.0917,0,-3.9856,-3.9907,-4.0008,-4.0051,-4.0098,-4.0167,-4.0216,-4.0278,-4.0327,-4.0418,-4.0456,-4.0536,-4.0604,-4.0724,-4.0789,-4.0866,-4.088,-4.0904,-4.0891,-4.0874,-4.0878,-4.0873,-4.0878,-4.0904,-4.0905,-4.0905,-4.0905,0,-3.99,-3.9929,-3.9998,-4.0078,-4.0136,-4.0202,-4.0268,-4.0301,-4.0376,-4.0428,-4.0508,-4.056,-4.0663,-4.0741,-4.0825,-4.0873,-4.0901,-4.0909,-4.0919,-4.0903,-4.0877,-4.089,-4.083,-4.0906,-4.0906,-4.0906,-4.0906,-4.0905,-3.9921,-3.9968,-4.0046,-4.0122,-4.0179,-4.024,-4.0291,-4.0347,-4.0415,-4.0504,-4.0537,-4.0618,-4.0693,-4.0809,-4.0857,-4.0921,-4.0923,-4.0939,-4.0943,-4.0945,-4.0943,-4.0869,-4.0937,-4.0937,-4.0937,-4.0937,-4.0937,0,-3.9966,-4.0018,-4.0087,-4.018,-4.0239,-4.0262,-4.0337,-4.0384,-4.0455,-4.0524,-4.059,-4.068,-4.0757,-4.0828,-4.0908,-4.0945,-4.096,-4.0964,-4.0961,-4.0971,-4.0937,-4.0919,-4.0951,-4.0951,-4.0951,-4.0951,-4.0951,-4.0951,-3.9995,-4.0075,-4.0113,-4.0221,-4.0274,-4.0354,-4.0394,-4.0451,-4.0506,-4.0606,-4.067,-4.0716,-4.0786,-4.0871,-4.0942,-4.0961,-4.0988,-4.0988,-4.101,-4.0976,-4.0974,-4.0971,-4.0954,-4.0994,-4.0994,-4.1039,-4.1039,-4.1039]},{"header":{"parameterUnit":"m.s-1","parameterCategory":1,"la1":30.2991,"la2":30.254,"lo1":-89.0895,"lo2":-89.0444,"dy":0.0017,"dx":0.0017,"nx":28,"ny":28,"refTime":"2023-09-02T09:00:00:Z","depth":0,"parameterNumber":3,"parameterNumberName":"V-component_of_WINDS"},"data":[0,0,0,0,0,0,0,0,0,0,0,0,0,0,0,0,0,0,0,0,0,0,0,0,0,0,0,0,0,0,0,0,0,0,0,0,0,0,0,0,0,0,0,0,0,0,0,0,0,0,0,0,0,0,0,0,0,0,2.8776,2.8777,0,2.8898,2.8899,2.89,2.8929,2.8928,2.8927,2.8926,2.9049,2.9053,2.9057,0,0,0,0,0,0,0,0,0,0,0,0,0,2.8565,2.8568,2.8775,2.8777,2.8779,2.8897,2.8899,2.8901,2.8929,2.8928,2.8927,2.8926,2.9048,2.9052,2.9057,0,0,0,0,0,0,0,0,0,0,0,0,0,2.8668,2.8569,2.8775,2.8807,2.8811,2.8897,2.8899,2.8901,2.8929,2.8928,2.8926,2.8925,2.9046,2.9052,2.9058,2.912,0,0,2.9076,2.9079,0,0,0,0,0,0,0,0,2.8662,2.8676,2.8801,2.8805,2.881,2.8897,2.887,2.8975,2.8929,2.8884,2.8926,2.8925,2.8999,2.9009,2.9035,2.9126,2.9131,2.9077,2.9081,2.9083,2.9085,0,0,0,0,0,0,0,2.8655,2.8671,2.8824,2.8802,2.8808,2.8814,2.8828,2.889,2.8947,2.8888,2.889,2.8904,2.9001,2.9029,2.9038,2.9133,2.9077,2.9082,2.9086,2.9088,2.9281,2.9283,0,0,0,0,0,0,2.8643,2.8665,2.882,2.8827,2.8731,2.8819,2.8834,2.887,2.8947,2.8957,2.8905,2.8905,2.9019,2.9031,2.9042,2.9119,2.9083,2.9089,2.9092,2.928,2.9281,2.9283,0,0,0,0,0,0,2.8638,2.8656,2.8815,2.8747,2.8767,2.8824,2.8864,2.8873,2.89,2.896,2.897,2.8923,2.9018,2.9034,2.9101,2.9124,2.9092,2.9097,2.9278,2.928,2.9282,2.9275,0,0,0,0,0,0,2.8632,2.8654,2.8679,2.8747,2.8771,2.8872,2.8866,2.8876,2.8911,2.8912,2.8979,2.8989,2.9019,2.9091,2.9107,2.9132,2.9102,2.9276,2.9279,2.9282,2.9273,2.9277,2.9279,0,0,0,0,0,2.8624,2.8672,2.868,2.8699,2.8803,2.8873,2.8887,2.8921,2.8913,2.8938,2.8976,2.8987,2.9119,2.9098,2.9115,2.9143,2.9275,2.9278,2.9281,2.9272,2.9276,2.9279,0,0,0,0,0,0,2.8605,2.8682,2.8692,2.8763,2.8812,2.8878,2.8911,2.8924,2.8976,2.8974,2.9014,2.9029,2.9093,2.9125,2.91,2.9207,2.9197,2.9204,2.9183,2.9188,2.9191,2.9181,2.9107,0,0,0,0,0,2.8609,2.866,2.8724,2.8781,2.8805,2.8854,2.8885,2.8907,2.8959,2.8979,2.9022,2.9071,2.9124,2.9158,2.921,2.9278,2.9293,2.9306,2.9309,2.9311,2.9316,2.9354,2.936,2.9294,2.9294,2.9294,0,0,2.8618,2.8666,2.8696,2.8778,2.8819,2.887,2.8871,2.8925,2.8963,2.8987,2.9053,2.9087,2.9144,2.9212,2.9244,2.924,2.9338,2.9315,2.9316,2.9321,2.9358,2.9364,2.9369,2.9296,2.9296,2.9295,0,0,2.866,2.8702,2.8754,2.8794,2.8855,2.8887,2.8899,2.8964,2.8987,2.9054,2.9073,2.9119,2.9209,2.9249,2.9281,2.9338,2.9349,2.9353,2.9369,2.9405,2.941,2.9415,2.9434,2.9441,2.9359,2.9359,2.9359,0,2.8663,2.8742,2.8778,2.8832,2.8867,2.8892,2.8944,2.8981,2.9055,2.9079,2.9074,2.9187,2.9228,2.9305,2.9319,2.9344,2.9358,2.9345,2.9407,2.9412,2.9417,2.9435,2.9443,2.9359,2.9359,2.9359,2.9359,0,2.8742,2.8796,2.883,2.8902,2.8941,2.8993,2.9037,2.9072,2.9091,2.9123,2.919,2.924,2.9301,2.9322,2.934,2.9401,2.9397,2.9399,2.9389,2.9423,2.9441,2.9448,2.9359,2.9359,2.9359,2.9359,0,0,2.8775,2.8866,2.8878,2.891,2.8979,2.9022,2.9075,2.9136,2.9165,2.9215,2.926,2.9336,2.9338,2.9374,2.9398,2.9429,2.947,2.9428,2.943,2.9433,2.9538,2.9535,2.9543,2.9478,2.948,2.9481,2.9533,0,2.8824,2.8921,2.8955,2.9034,2.9084,2.9108,2.9154,2.9201,2.9233,2.9279,2.9314,2.9366,2.9366,2.9388,2.9421,2.9458,2.9491,2.9455,2.9519,2.9521,2.9503,2.9553,2.955,2.9597,2.9541,2.9542,2.9543,0,2.8895,2.8947,2.9031,2.9093,2.9115,2.9156,2.9215,2.9259,2.9312,2.9333,2.9373,2.9394,2.945,2.9438,2.9514,2.9488,2.9517,2.9539,2.9542,2.9548,2.9533,2.9559,2.9613,2.962,2.9555,2.9554,2.9553,0,2.8909,2.9,2.9062,2.9089,2.9164,2.9191,2.9224,2.9276,2.931,2.9361,2.9383,2.944,2.947,2.9513,2.9548,2.9537,2.9621,2.9612,2.9639,2.9638,2.9655,2.9653,2.9712,2.9675,2.9675,2.9675,2.9674,0,2.8961,2.9011,2.9069,2.9107,2.9163,2.9202,2.9257,2.929,2.9336,2.938,2.9405,2.9446,2.9491,2.9537,2.9565,2.9623,2.9637,2.9655,2.9661,2.9652,2.9649,2.967,2.9667,2.9676,2.9676,2.9676,2.9675,0,2.8986,2.9027,2.9096,2.9161,2.9178,2.9217,2.9272,2.9309,2.9341,2.9397,2.9412,2.9463,2.9519,2.9558,2.963,2.9649,2.9711,2.9718,2.9693,2.9696,2.972,2.9717,2.9794,2.9806,2.9761,2.9761,2.9762,0,2.9015,2.9054,2.9123,2.9155,2.9187,2.9238,2.9273,2.9312,2.9348,2.9411,2.944,2.9498,2.9546,2.9633,2.9676,2.9731,2.9739,2.9762,2.9747,2.9736,2.9738,2.9734,2.9738,2.9764,2.9764,2.9764,2.9764,0,2.9063,2.9081,2.9131,2.9188,2.923,2.9276,2.9323,2.9347,2.9395,2.9433,2.9491,2.9528,2.9601,2.9657,2.9716,2.9749,2.9764,2.9769,2.9778,2.9768,2.9751,2.9759,2.9698,2.9767,2.9767,2.9766,2.9766,2.9766,2.909,2.9126,2.918,2.9235,2.9274,2.9317,2.9355,2.9392,2.9441,2.9504,2.9524,2.9583,2.9635,2.9716,2.9749,2.9795,2.9794,2.9807,2.981,2.9812,2.9811,2.9745,2.9806,2.9806,2.9806,2.9806,2.9806,0,2.9138,2.9174,2.9224,2.9289,2.9332,2.9344,2.9396,2.943,2.9482,2.953,2.9576,2.9642,2.9696,2.9744,2.98,2.9828,2.9836,2.9841,2.9839,2.9846,2.981,2.9796,2.9833,2.9833,2.9833,2.9833,2.9833,2.9833,2.9168,2.9229,2.9253,2.9333,2.9369,2.9427,2.9456,2.9495,2.9533,2.9605,2.9651,2.9682,2.9728,2.9788,2.9839,2.9851,2.987,2.9873,2.9887,2.9852,2.9849,2.9846,2.9833,2.9877,2.9877,2.9919,2.992,2.992]}]]